| time (UTC) | temp F | wind direction | speed knots | gust knots | rain 1hr in | rain 24hr in | rain mn in | humidity % | barometer mb |
| 20260508004847 | 56 | 42 | 0.0 | 0.9 | 0.00 | 0.02 | 0.02 | 53 | 1009.9 |
| 20260508004635 | 56 | 42 | 0.0 | 1.7 | 0.00 | 0.02 | 0.02 | 53 | 1009.6 |
| 20260508004435 | 57 | 42 | 0.0 | 1.7 | 0.00 | 0.02 | 0.02 | 52 | 1009.8 |
| 20260508003905 | 57 | 42 | 0.0 | 0.9 | 0.00 | 0.02 | 0.02 | 51 | 1009.8 |
| 20260508003341 | 58 | 41 | 0.0 | 0.0 | 0.00 | 0.02 | 0.02 | 51 | 1009.7 |
| 20260508003054 | 57 | 41 | 0.0 | 0.0 | 0.00 | 0.02 | 0.02 | 51 | 1009.5 |
| 20260508002853 | 58 | 41 | 0.0 | 0.0 | 0.00 | 0.02 | 0.02 | 50 | 1009.7 |
| 20260508002345 | 58 | 41 | 0.0 | 0.9 | 0.00 | 0.02 | 0.02 | 49 | 1009.6 |
| 20260508001858 | 59 | 41 | 0.0 | 0.9 | 0.00 | 0.02 | 0.02 | 50 | 1009.6 |
| 20260508001551 | 58 | 41 | 0.0 | 0.0 | 0.00 | 0.02 | 0.02 | 49 | 1009.3 |
| 20260508001350 | 59 | 41 | 0.0 | 0.9 | 0.00 | 0.02 | 0.02 | 48 | 1009.5 |
| 20260508000902 | 60 | 41 | 0.0 | 0.9 | 0.00 | 0.02 | 0.02 | 45 | 1009.4 |
| 20260508000414 | 60 | 41 | 0.0 | 0.9 | 0.00 | 0.02 | 0.02 | 44 | 1009.3 |
| 20260508000043 | 60 | 41 | 0.0 | 0.9 | 0.00 | 0.02 | 0.02 | 43 | 1009.0 |
| 20260507235842 | 61 | 41 | 0.0 | 0.9 | 0.00 | 0.02 | 0.02 | 43 | 1009.2 |
| 20260507235413 | 61 | 41 | 0.0 | 2.6 | 0.00 | 0.02 | 0.02 | 39 | 1009.1 |
| 20260507234603 | 61 | 46 | 0.9 | 3.5 | 0.00 | 0.02 | 0.02 | 39 | 1008.8 |
| 20260507233056 | 62 | 80 | 0.0 | 2.6 | 0.00 | 0.02 | 0.02 | 38 | 1008.6 |
| 20260507231558 | 63 | 85 | 0.0 | 1.7 | 0.00 | 0.02 | 0.02 | 38 | 1008.6 |
| 20260507230100 | 63 | 333 | 0.9 | 4.3 | 0.00 | 0.02 | 0.02 | 36 | 1008.4 |
| 20260507224556 | 64 | 269 | 1.7 | 5.2 | 0.00 | 0.02 | 0.02 | 36 | 1008.3 |
| 20260507223059 | 64 | 335 | 0.0 | 3.5 | 0.00 | 0.02 | 0.02 | 36 | 1008.0 |
| 20260507221553 | 65 | 342 | 0.9 | 4.3 | 0.00 | 0.02 | 0.02 | 36 | 1007.8 |
| 20260507220054 | 65 | 26 | 1.7 | 4.3 | 0.00 | 0.02 | 0.02 | 36 | 1007.7 |
| 20260507214652 | 65 | 20 | 0.9 | 7.0 | 0.00 | 0.02 | 0.02 | 34 | 1007.5 |
| 20260507213052 | 66 | 59 | 0.9 | 4.3 | 0.00 | 0.02 | 0.02 | 34 | 1007.3 |
| 20260507211552 | 66 | 340 | 0.0 | 5.2 | 0.01 | 0.02 | 0.02 | 33 | 1007.2 |
| 20260507210052 | 68 | 15 | 0.9 | 7.0 | 0.02 | 0.02 | 0.02 | 32 | 1007.1 |
| 20260507204550 | 67 | 194 | 2.6 | 9.6 | 0.02 | 0.02 | 0.02 | 32 | 1007.1 |
| 20260507203841 | 70 | 360 | 1.7 | 5.2 | 0.02 | 0.02 | 0.02 | 31 | 1007.4 |
| 20260507203354 | 69 | 88 | 0.9 | 5.2 | 0.02 | 0.02 | 0.02 | 34 | 1007.4 |
| 20260507203057 | 67 | 138 | 1.7 | 5.2 | 0.02 | 0.02 | 0.02 | 32 | 1007.2 |
| 20260507202847 | 67 | 30 | 3.5 | 6.1 | 0.02 | 0.02 | 0.02 | 31 | 1007.5 |
| 20260507202340 | 68 | 331 | 2.6 | 6.1 | 0.02 | 0.02 | 0.02 | 31 | 1007.5 |
| 20260507201851 | 68 | 336 | 2.6 | 7.0 | 0.01 | 0.01 | 0.01 | 32 | 1007.6 |
| 20260507201544 | 67 | 355 | 0.9 | 11.3 | 0.01 | 0.01 | 0.01 | 31 | 1007.3 |
| 20260507201343 | 68 | 241 | 2.6 | 11.3 | 0.01 | 0.01 | 0.01 | 31 | 1007.7 |
| 20260507200836 | 69 | 184 | 0.9 | 6.1 | 0.00 | 0.00 | 0.00 | 31 | 1007.4 |
| 20260507200350 | 69 | 351 | 0.9 | 6.1 | 0.00 | 0.00 | 0.00 | 30 | 1007.6 |
| 20260507200047 | 68 | 15 | 2.6 | 6.1 | 0.00 | 0.00 | 0.00 | 30 | 1007.4 |
| 20260507195839 | 68 | 333 | 3.5 | 6.1 | 0.00 | 0.00 | 0.00 | 32 | 1007.5 |
| 20260507195352 | 69 | 265 | 1.7 | 6.1 | 0.00 | 0.00 | 0.00 | 31 | 1007.7 |
| 20260507194845 | 69 | 101 | 2.6 | 6.1 | 0.00 | 0.00 | 0.00 | 33 | 1007.6 |
| 20260507194538 | 67 | 228 | 0.9 | 5.2 | 0.00 | 0.00 | 0.00 | 32 | 1007.5 |
| 20260507194339 | 68 | 57 | 0.9 | 5.2 | 0.00 | 0.00 | 0.00 | 32 | 1007.7 |
| 20260507193849 | 68 | 313 | 2.6 | 5.2 | 0.00 | 0.00 | 0.00 | 31 | 1007.7 |
| 20260507193402 | 69 | 219 | 1.7 | 5.2 | 0.00 | 0.00 | 0.00 | 31 | 1007.7 |
| 20260507193059 | 68 | 360 | 0.9 | 5.2 | 0.00 | 0.00 | 0.00 | 31 | 1007.6 |
| 20260507192853 | 69 | 355 | 2.6 | 5.2 | 0.00 | 0.00 | 0.00 | 30 | 1007.8 |
| 20260507192346 | 67 | 211 | 1.7 | 7.0 | 0.00 | 0.00 | 0.00 | 31 | 1007.8 |
| 20260507191838 | 69 | 267 | 3.5 | 7.0 | 0.00 | 0.00 | 0.00 | 31 | 1007.9 |
| 20260507191537 | 69 | 302 | 0.9 | 5.2 | 0.00 | 0.00 | 0.00 | 32 | 1007.5 |
| 20260507191336 | 69 | 161 | 2.6 | 8.7 | 0.00 | 0.00 | 0.00 | 31 | 1007.9 |
| 20260507190851 | 71 | 311 | 2.6 | 8.7 | 0.00 | 0.00 | 0.00 | 31 | 1007.8 |
| 20260507190405 | 70 | 57 | 0.9 | 6.1 | 0.00 | 0.00 | 0.00 | 33 | 1007.9 |
| 20260507190054 | 68 | 324 | 0.9 | 6.1 | 0.00 | 0.00 | 0.00 | 31 | 1007.8 |
| 20260507185853 | 68 | 40 | 3.5 | 6.1 | 0.00 | 0.00 | 0.00 | 31 | 1008.0 |
| 20260507185346 | 70 | 53 | 1.7 | 5.2 | 0.00 | 0.00 | 0.00 | 31 | 1008.1 |
| 20260507184859 | 70 | 5 | 3.5 | 6.1 | 0.00 | 0.00 | 0.00 | 32 | 1008.1 |
| 20260507184550 | 69 | 26 | 1.7 | 6.1 | 0.00 | 0.00 | 0.00 | 33 | 1008.0 |
| 20260507184349 | 68 | 157 | 2.6 | 6.1 | 0.00 | 0.00 | 0.00 | 32 | 1008.2 |
| 20260507183841 | 68 | 58 | 2.6 | 4.3 | 0.00 | 0.00 | 0.00 | 32 | 1008.2 |
| 20260507183354 | 69 | 360 | 2.6 | 4.3 | 0.00 | 0.00 | 0.00 | 31 | 1008.2 |
| 20260507183020 | 68 | 86 | 0.9 | 5.2 | 0.00 | 0.00 | 0.00 | 33 | 1007.9 |
| 20260507182906 | 68 | 360 | 1.7 | 5.2 | 0.00 | 0.00 | 0.00 | 34 | 1008.3 |
| 20260507182358 | 66 | 331 | 3.5 | 6.1 | 0.00 | 0.00 | 0.00 | 33 | 1008.3 |
| 20260507181850 | 67 | 355 | 3.5 | 6.1 | 0.00 | 0.00 | 0.00 | 33 | 1008.3 |
| 20260507181543 | 68 | 291 | 1.7 | 5.2 | 0.00 | 0.00 | 0.00 | 34 | 1008.1 |
| 20260507181342 | 69 | 309 | 3.5 | 5.2 | 0.00 | 0.00 | 0.00 | 32 | 1008.3 |
| 20260507180855 | 70 | 70 | 2.6 | 8.7 | 0.00 | 0.00 | 0.00 | 34 | 1008.2 |
| 20260507180350 | 69 | 53 | 3.5 | 8.7 | 0.00 | 0.00 | 0.00 | 36 | 1008.3 |
| 20260507180044 | 67 | 22 | 2.6 | 6.1 | 0.00 | 0.00 | 0.00 | 33 | 1008.2 |
| 20260507175840 | 68 | 355 | 1.7 | 6.1 | 0.00 | 0.00 | 0.00 | 33 | 1008.4 |
| 20260507175415 | 67 | 142 | 284.2 | 284.2 | 0.00 | 0.00 | 0.00 | 37 | 1008.3 |
| 20260507174910 | 67 | 175 | 2.6 | 4.3 | 0.00 | 0.00 | 0.00 | 35 | 1008.7 |
| 20260507174519 | 68 | 203 | 1.7 | 3.5 | 0.00 | 0.00 | 0.00 | 37 | 1008.5 |
| 20260507173014 | 65 | 241 | 1.7 | 5.2 | 0.00 | 0.00 | 0.00 | 41 | 1008.8 |
| 20260507171615 | 64 | 184 | 2.6 | 5.2 | 0.00 | 0.00 | 0.00 | 43 | 1009.1 |
| 20260507170010 | 62 | 348 | 0.9 | 4.3 | 0.00 | 0.00 | 0.00 | 42 | 1009.4 |
| 20260507164505 | 62 | 320 | 2.6 | 4.3 | 0.00 | 0.00 | 0.00 | 42 | 1009.8 |
| 20260507163003 | 63 | 52 | 2.6 | 5.2 | 0.00 | 0.00 | 0.00 | 44 | 1010.0 |
| 20260507161613 | 62 | 57 | 1.7 | 6.1 | 0.00 | 0.00 | 0.00 | 45 | 1010.2 |
| 20260507160100 | 62 | 331 | 1.7 | 4.3 | 0.00 | 0.00 | 0.00 | 45 | 1010.4 |
| 20260507154556 | 60 | 16 | 1.7 | 6.1 | 0.00 | 0.01 | 0.00 | 45 | 1010.7 |
| 20260507153054 | 60 | 56 | 1.7 | 5.2 | 0.00 | 0.01 | 0.00 | 47 | 1010.7 |
| 20260507151550 | 58 | 15 | 1.7 | 6.1 | 0.00 | 0.01 | 0.00 | 49 | 1010.9 |
| 20260507150049 | 57 | 315 | 0.0 | 4.3 | 0.00 | 0.01 | 0.00 | 52 | 1011.4 |
| 20260507144545 | 55 | 315 | 0.9 | 2.6 | 0.00 | 0.01 | 0.00 | 53 | 1011.8 |
| 20260507143046 | 55 | 61 | 0.9 | 7.0 | 0.00 | 0.01 | 0.00 | 52 | 1012.0 |
| 20260507141548 | 55 | 57 | 1.7 | 5.2 | 0.00 | 0.01 | 0.00 | 54 | 1012.0 |
| 20260507140040 | 54 | 82 | 1.7 | 4.3 | 0.00 | 0.01 | 0.00 | 56 | 1012.2 |
| 20260507134547 | 53 | 75 | 1.7 | 3.5 | 0.00 | 0.01 | 0.00 | 56 | 1012.3 |
| 20260507133038 | 53 | 80 | 2.6 | 5.2 | 0.00 | 0.01 | 0.00 | 56 | 1012.4 |
| 20260507131539 | 52 | 355 | 0.0 | 2.6 | 0.00 | 0.01 | 0.00 | 56 | 1012.8 |
| 20260507130036 | 52 | 54 | 0.0 | 1.7 | 0.00 | 0.01 | 0.00 | 58 | 1012.9 |
| 20260507124535 | 51 | 98 | 0.0 | 0.9 | 0.00 | 0.01 | 0.00 | 60 | 1012.9 |
| 20260507123036 | 51 | 98 | 0.0 | 1.7 | 0.00 | 0.01 | 0.00 | 63 | 1012.9 |
| 20260507121531 | 51 | 98 | 0.0 | 1.7 | 0.00 | 0.01 | 0.00 | 63 | 1012.7 |
| 20260507120029 | 51 | 65 | 0.0 | 0.9 | 0.00 | 0.01 | 0.00 | 69 | 1012.6 |
| 20260507114532 | 50 | 65 | 0.0 | 0.0 | 0.00 | 0.01 | 0.00 | 72 | 1012.6 |
| 20260507113026 | 50 | 65 | 0.0 | 0.0 | 0.00 | 0.01 | 0.00 | 73 | 1012.5 |
| 20260507111525 | 50 | 65 | 0.0 | 0.0 | 0.00 | 0.01 | 0.00 | 74 | 1012.4 |
| 20260507110024 | 50 | 65 | 0.0 | 0.0 | 0.00 | 0.01 | 0.00 | 72 | 1012.2 |
| 20260507104524 | 50 | 65 | 0.0 | 0.9 | 0.00 | 0.01 | 0.00 | 74 | 1012.2 |
| 20260507103024 | 50 | 65 | 0.0 | 1.7 | 0.00 | 0.01 | 0.00 | 71 | 1012.0 |
| 20260507101521 | 51 | 318 | 0.9 | 3.5 | 0.00 | 0.01 | 0.00 | 74 | 1011.4 |
| 20260507100017 | 50 | 340 | 0.0 | 0.9 | 0.00 | 0.01 | 0.00 | 76 | 1011.5 |
| 20260507094516 | 50 | 340 | 0.0 | 0.0 | 0.00 | 0.01 | 0.00 | 83 | 1011.4 |
| 20260507093015 | 51 | 340 | 0.0 | 0.0 | 0.00 | 0.01 | 0.00 | 79 | 1011.4 |
| 20260507091513 | 51 | 340 | 0.0 | 0.0 | 0.00 | 0.01 | 0.00 | 78 | 1011.2 |
| 20260507090012 | 51 | 340 | 0.0 | 0.0 | 0.00 | 0.01 | 0.00 | 76 | 1011.4 |
| 20260507084519 | 52 | 340 | 0.0 | 0.0 | 0.00 | 0.01 | 0.00 | 76 | 1011.4 |
| 20260507083010 | 52 | 340 | 0.0 | 0.0 | 0.00 | 0.01 | 0.00 | 78 | 1011.2 |
| 20260507081513 | 52 | 340 | 0.0 | 0.9 | 0.00 | 0.01 | 0.00 | 75 | 1011.3 |
| 20260507080007 | 52 | 340 | 0.0 | 0.9 | 0.00 | 0.01 | 0.00 | 77 | 1011.1 |
| 20260507074519 | 52 | 340 | 0.0 | 0.0 | 0.00 | 0.01 | 0.00 | 81 | 1010.8 |
| 20260507073005 | 52 | 340 | 0.0 | 2.6 | 0.00 | 0.01 | 0.00 | 83 | 1010.9 |
| 20260507071504 | 52 | 90 | 0.0 | 0.0 | 0.00 | 0.01 | 0.00 | 88 | 1010.7 |
| 20260507070010 | 52 | 90 | 0.0 | 0.0 | 0.00 | 0.01 | 0.00 | 87 | 1010.7 |
| 20260507064601 | 52 | 90 | 0.0 | 0.0 | 0.00 | 0.01 | 0.00 | 85 | 1010.8 |
| 20260507063100 | 53 | 90 | 0.0 | 0.0 | 0.00 | 0.01 | 0.00 | 83 | 1011.1 |
| 20260507061558 | 53 | 90 | 0.0 | 0.0 | 0.00 | 0.01 | 0.00 | 83 | 1011.2 |
| 20260507060106 | 53 | 90 | 0.0 | 0.0 | 0.00 | 0.01 | 0.00 | 82 | 1011.3 |
| 20260507054554 | 53 | 90 | 0.0 | 0.0 | 0.00 | 0.01 | 0.00 | 81 | 1011.5 |
| 20260507053052 | 53 | 90 | 0.0 | 0.9 | 0.00 | 0.01 | 0.00 | 81 | 1011.3 |
| 20260507051548 | 53 | 90 | 0.0 | 0.9 | 0.00 | 0.01 | 0.00 | 80 | 1011.2 |
| 20260507050046 | 53 | 90 | 0.0 | 1.7 | 0.00 | 0.01 | 0.00 | 81 | 1011.0 |
| 20260507045848 | 54 | 90 | 0.9 | 1.7 | 0.00 | 0.01 | 0.00 | 81 | 1011.4 |
| 20260507045340 | 54 | 91 | 0.9 | 1.7 | 0.00 | 0.01 | 0.00 | 82 | 1011.6 |
| 20260507044913 | 54 | 91 | 0.0 | 0.9 | 0.00 | 0.01 | 0.00 | 81 | 1011.5 |
| 20260507044547 | 54 | 91 | 0.0 | 0.9 | 0.00 | 0.01 | 0.00 | 80 | 1010.9 |
| 20260507044345 | 54 | 91 | 0.0 | 2.6 | 0.00 | 0.01 | 0.00 | 81 | 1011.3 |
| 20260507043341 | 54 | 309 | 0.0 | 1.7 | 0.00 | 0.01 | 0.00 | 80 | 1011.5 |
| 20260507043059 | 53 | 64 | 0.0 | 1.7 | 0.00 | 0.01 | 0.00 | 82 | 1011.0 |
| 20260507042853 | 54 | 64 | 0.0 | 1.7 | 0.00 | 0.01 | 0.00 | 81 | 1011.5 |
| 20260507042345 | 54 | 64 | 0.9 | 1.7 | 0.00 | 0.01 | 0.00 | 82 | 1011.4 |
| 20260507041838 | 54 | 65 | 0.0 | 0.9 | 0.00 | 0.01 | 0.00 | 83 | 1011.6 |
| 20260507041513 | 53 | 65 | 0.0 | 0.9 | 0.00 | 0.01 | 0.00 | 83 | 1011.0 |
| 20260507041411 | 54 | 65 | 0.0 | 0.9 | 0.00 | 0.01 | 0.00 | 84 | 1011.5 |
| 20260507040902 | 54 | 65 | 0.0 | 1.7 | 0.00 | 0.01 | 0.00 | 85 | 1011.7 |
| 20260507040414 | 54 | 65 | 0.9 | 1.7 | 0.00 | 0.01 | 0.00 | 83 | 1011.8 |
| 20260507040043 | 54 | 66 | 0.0 | 1.7 | 0.00 | 0.01 | 0.00 | 82 | 1011.2 |
| 20260507035842 | 54 | 66 | 0.0 | 1.7 | 0.00 | 0.06 | 0.01 | 83 | 1011.3 |
| 20260507035355 | 54 | 66 | 0.0 | 1.7 | 0.00 | 0.06 | 0.01 | 83 | 1011.3 |
| 20260507034848 | 54 | 63 | 0.0 | 2.6 | 0.00 | 0.06 | 0.01 | 81 | 1011.4 |
| 20260507034552 | 54 | 63 | 0.0 | 2.6 | 0.00 | 0.06 | 0.01 | 82 | 1010.9 |
| 20260507034340 | 54 | 63 | 0.9 | 4.3 | 0.00 | 0.06 | 0.01 | 82 | 1011.4 |
| 20260507033342 | 54 | 327 | 0.9 | 3.5 | 0.00 | 0.06 | 0.01 | 81 | 1012.0 |
| 20260507033056 | 54 | 336 | 1.7 | 3.5 | 0.00 | 0.06 | 0.01 | 81 | 1011.3 |
| 20260507032856 | 54 | 323 | 1.7 | 2.6 | 0.00 | 0.06 | 0.01 | 82 | 1011.7 |
| 20260507032349 | 55 | 338 | 0.9 | 1.7 | 0.00 | 0.06 | 0.01 | 83 | 1011.2 |
| 20260507031841 | 55 | 60 | 0.0 | 0.9 | 0.00 | 0.06 | 0.01 | 82 | 1011.1 |
| 20260507031513 | 54 | 60 | 0.0 | 2.6 | 0.00 | 0.06 | 0.01 | 82 | 1010.7 |
| 20260507031412 | 55 | 60 | 0.0 | 2.6 | 0.00 | 0.06 | 0.01 | 83 | 1011.4 |
| 20260507030843 | 55 | 101 | 0.9 | 2.6 | 0.00 | 0.06 | 0.01 | 84 | 1011.6 |
| 20260507030356 | 55 | 346 | 0.9 | 5.2 | 0.00 | 0.06 | 0.01 | 83 | 1011.6 |
| 20260507030047 | 54 | 347 | 0.9 | 5.2 | 0.00 | 0.06 | 0.01 | 83 | 1011.1 |
| 20260507025846 | 55 | 301 | 1.7 | 5.2 | 0.00 | 0.06 | 0.01 | 83 | 1011.6 |
| 20260507025339 | 55 | 67 | 1.7 | 3.5 | 0.00 | 0.06 | 0.01 | 84 | 1011.6 |
| 20260507024852 | 55 | 5 | 0.9 | 6.1 | 0.00 | 0.06 | 0.01 | 85 | 1011.6 |
| 20260507024554 | 55 | 342 | 0.9 | 6.1 | 0.00 | 0.06 | 0.01 | 87 | 1011.0 |
| 20260507024345 | 55 | 5 | 2.6 | 6.1 | 0.00 | 0.06 | 0.01 | 87 | 1011.5 |
| 20260507023838 | 56 | 95 | 0.9 | 3.5 | 0.00 | 0.06 | 0.01 | 87 | 1011.4 |
| 20260507023351 | 56 | 38 | 0.9 | 3.5 | 0.00 | 0.06 | 0.01 | 87 | 1011.5 |
| 20260507023045 | 55 | 169 | 0.0 | 0.9 | 0.00 | 0.06 | 0.01 | 86 | 1010.8 |
| 20260507022844 | 56 | 169 | 0.0 | 0.9 | 0.00 | 0.06 | 0.01 | 86 | 1011.2 |
| 20260507022337 | 56 | 169 | 0.0 | 0.9 | 0.00 | 0.06 | 0.01 | 85 | 1011.0 |
| 20260507021909 | 56 | 169 | 0.0 | 1.7 | 0.00 | 0.06 | 0.01 | 84 | 1010.8 |
| 20260507021547 | 56 | 273 | 0.0 | 1.7 | 0.00 | 0.06 | 0.01 | 84 | 1010.4 |
| 20260507021340 | 56 | 273 | 0.0 | 1.7 | 0.00 | 0.06 | 0.01 | 84 | 1010.9 |
| 20260507020852 | 57 | 261 | 0.0 | 1.7 | 0.00 | 0.06 | 0.01 | 85 | 1010.9 |
| 20260507020346 | 57 | 75 | 0.0 | 0.9 | 0.00 | 0.06 | 0.01 | 85 | 1010.7 |
| 20260507020057 | 56 | 75 | 0.0 | 0.9 | 0.00 | 0.06 | 0.01 | 86 | 1010.2 |
| 20260507015855 | 57 | 75 | 0.0 | 0.9 | 0.00 | 0.06 | 0.01 | 86 | 1010.7 |
| 20260507015347 | 57 | 75 | 0.0 | 0.9 | 0.00 | 0.06 | 0.01 | 84 | 1010.7 |
| 20260507014839 | 57 | 75 | 0.0 | 1.7 | 0.00 | 0.06 | 0.01 | 83 | 1010.7 |
| 20260507014553 | 56 | 75 | 0.0 | 1.7 | 0.00 | 0.06 | 0.01 | 83 | 1010.2 |
| 20260507014352 | 57 | 75 | 0.0 | 1.7 | 0.00 | 0.06 | 0.01 | 84 | 1010.7 |
| 20260507013904 | 57 | 293 | 0.0 | 1.7 | 0.00 | 0.06 | 0.01 | 82 | 1010.7 |
| 20260507013415 | 57 | 198 | 0.0 | 1.7 | 0.00 | 0.06 | 0.01 | 84 | 1010.7 |
| 20260507013048 | 56 | 198 | 0.0 | 1.7 | 0.00 | 0.06 | 0.01 | 83 | 1010.1 |
| 20260507012848 | 57 | 67 | 0.0 | 1.7 | 0.00 | 0.06 | 0.01 | 83 | 1010.6 |
| 20260507012343 | 57 | 49 | 0.9 | 2.6 | 0.00 | 0.06 | 0.01 | 82 | 1010.4 |
| 20260507011855 | 57 | 351 | 0.0 | 2.6 | 0.00 | 0.06 | 0.01 | 83 | 1010.5 |
| 20260507011512 | 57 | 344 | 1.7 | 2.6 | 0.00 | 0.06 | 0.01 | 84 | 1010.0 |
| 20260507011408 | 57 | 320 | 1.7 | 2.6 | 0.00 | 0.06 | 0.01 | 84 | 1010.8 |
| 20260507010353 | 58 | 273 | 0.0 | 2.6 | 0.00 | 0.06 | 0.01 | 82 | 1010.5 |
| 20260507010005 | 57 | 273 | 0.0 | 2.6 | 0.00 | 0.06 | 0.01 | 83 | 1009.8 |
| 20260507005902 | 58 | 62 | 0.0 | 0.9 | 0.00 | 0.06 | 0.01 | 83 | 1010.3 |
| 20260507005354 | 58 | 62 | 0.0 | 3.5 | 0.00 | 0.06 | 0.01 | 84 | 1010.0 |